Date,TemperatureHighF,TemperatureAvgF,TemperatureLowF,DewpointHighF,DewpointAvgF,DewpointLowF,HumidityHigh,HumidityAvg,HumidityLow,PressureMaxIn,PressureMinIn,WindSpeedMaxMPH,WindSpeedAvgMPH,GustSpeedMaxMPH,PrecipitationSumIn
2013-1-1,24,17,8,20,15,7,100,92,79,30.32,30.16,14,4,14,0.00
2013-1-2,34,26,13,29,21,8,100,81,66,30.30,30.10,21,5,21,0.00
2013-1-3,26,22,12,21,17,11,99,81,66,30.43,30.29,15,3,15,0.00
2013-1-4,35,18,10,21,11,4,100,74,49,30.32,30.10,13,3,13,0.00
2013-1-5,41,26,12,26,17,7,92,69,50,30.29,30.03,17,3,17,0.00
2013-1-6,36,27,16,25,19,12,87,72,49,30.33,29.98,25,5,25,0.00
2013-1-7,42,30,19,28,23,18,100,75,48,30.00,29.89,21,4,21,0.00
2013-1-8,46,32,15,32,24,13,100,75,53,30.17,29.81,12,2,12,0.00
2013-1-9,47,36,24,32,27,20,87,71,51,30.40,30.16,19,5,19,0.00
2013-1-10,36,35,32,36,32,27,100,91,73,30.19,29.55,19,6,19,0.01
2013-1-11,40,34,18,40,33,13,100,97,79,29.88,29.26,28,7,28,0.01
2013-1-12,19,13,7,13,5,0,83,70,56,30.25,29.88,25,5,25,0.00
2013-1-13,19,10,2,8,3,-2,85,73,55,30.41,30.25,13,2,13,0.00
2013-1-14,24,13,1,15,6,-1,100,76,46,30.52,30.32,10,1,10,0.00
2013-1-15,28,18,8,18,11,2,100,77,34,30.32,30.05,16,3,16,0.00
2013-1-16,50,38,23,32,26,17,100,65,35,30.25,29.97,22,3,22,0.00
2013-1-17,49,36,24,31,26,22,100,71,38,30.43,30.18,14,2,14,0.00
2013-1-18,58,40,25,26,23,14,99,54,21,30.18,29.86,17,3,17,0.00
2013-1-19,56,42,30,28,21,14,84,47,20,30.22,29.85,24,3,24,0.00
2013-1-20,35,24,16,32,22,15,100,94,71,30.47,30.19,21,2,21,0.00
2013-1-21,23,18,14,20,17,14,100,95,76,30.43,30.27,7,1,7,0.00
2013-1-22,29,18,8,18,14,8,100,85,55,30.31,30.18,8,2,8,0.00
2013-1-23,36,25,16,24,18,9,97,73,54,30.43,30.14,14,4,14,0.00
2013-1-24,22,15,5,17,10,5,100,81,60,30.43,30.12,17,4,17,0.00
2013-1-25,50,38,21,26,23,17,92,55,30,30.23,30.08,14,4,14,0.00
2013-1-26,54,41,30,42,28,24,100,64,32,30.09,29.78,32,6,32,0.00
2013-1-27,51,42,37,47,41,36,100,97,72,29.78,29.61,14,2,14,0.06
2013-1-28,43,38,32,43,38,32,100,100,100,29.73,29.53,24,3,24,0.02
2013-1-29,36,34,28,36,34,28,100,100,94,29.78,29.61,24,8,24,0.00
2013-1-30,31,24,17,29,17,9,100,76,44,29.96,29.78,34,7,34,0.00
2013-1-31,23,17,10,21,7,-4,100,65,40,30.41,29.91,32,7,32,0.00
2013-2-1,50,32,12,34,22,2,100,73,37,30.36,29.95,27,9,27,0.00
2013-2-2,53,40,26,35,25,15,100,62,23,30.19,30.08,22,4,22,0.00
2013-2-3,50,38,25,28,24,18,100,60,28,30.19,29.76,28,6,28,0.00
2013-2-4,50,38,31,32,27,22,100,65,36,29.94,29.77,20,5,20,0.00
2013-2-5,53,41,30,31,24,18,100,55,26,30.01,29.79,18,3,18,0.00
2013-2-6,59,44,34,39,33,27,83,65,40,29.89,29.66,26,8,26,0.00
2013-2-7,52,40,30,32,25,11,100,58,22,30.16,29.86,21,6,21,0.00
2013-2-8,45,33,23,33,29,23,100,87,54,30.17,29.87,27,7,27,0.00
2013-2-9,49,38,29,45,34,28,100,89,47,29.87,29.36,27,8,27,0.09
2013-2-10,38,32,26,38,28,19,100,87,70,30.00,29.11,40,8,40,0.19
2013-2-11,36,26,18,20,16,10,93,67,36,30.19,29.99,18,3,18,0.01
2013-2-12,41,30,20,23,16,5,87,59,24,30.14,29.92,18,4,18,0.01
2013-2-13,51,39,25,33,22,16,78,53,28,29.93,29.75,19,4,19,0.00
2013-2-14,39,33,24,34,24,14,95,70,41,30.32,29.85,36,8,36,0.00
2013-2-15,33,23,14,24,14,5,100,70,34,30.42,30.32,31,5,31,0.00
2013-2-16,54,35,14,28,21,8,89,61,31,30.35,29.87,34,6,34,0.00
2013-2-17,63,44,26,31,23,9,99,51,12,29.87,29.43,32,6,32,0.00
2013-2-18,42,35,26,31,22,14,79,58,38,30.13,29.47,40,17,40,0.00
2013-2-19,33,24,15,20,11,2,97,62,39,30.32,30.13,18,4,18,0.00
2013-2-20,22,17,11,22,12,-1,100,82,46,30.25,30.05,11,3,12,0.00
2013-2-21,19,17,13,19,17,13,100,100,100,30.08,29.92,17,6,17,0.00
2013-2-22,23,15,8,18,13,8,100,91,68,30.09,30.00,10,2,10,0.13
2013-2-23,32,22,11,30,21,11,100,95,80,30.04,29.76,14,4,14,0.01
2013-2-24,32,25,19,32,25,19,100,100,100,30.09,29.80,18,4,18,0.01
2013-2-25,34,30,21,32,28,21,100,94,76,30.08,29.92,16,5,16,0.05
2013-2-26,32,23,12,28,21,12,100,92,68,30.00,29.84,19,4,19,0.00
2013-2-27,32,29,26,31,26,17,100,87,67,30.20,29.98,28,12,28,0.00
2013-2-28,34,27,21,31,26,21,100,97,79,30.27,30.19,21,5,21,0.00
2013-3-1,34,25,12,30,24,12,100,95,75,30.35,30.24,14,2,14,0.00
2013-3-2,40,31,16,38,29,16,100,94,81,30.34,29.95,13,4,13,0.00
2013-3-3,50,41,34,38,36,33,100,83,57,29.95,29.51,13,3,13,0.00
2013-3-4,44,36,25,37,25,8,100,68,33,30.16,29.51,34,10,34,0.00
2013-3-5,35,27,21,22,14,10,77,58,37,30.39,30.16,42,6,42,0.00
2013-3-6,37,27,16,28,22,14,100,80,59,30.37,30.01,17,3,17,0.00
2013-3-7,45,35,25,36,29,25,100,81,53,30.05,29.96,12,2,12,0.00
2013-3-8,52,41,30,52,39,30,100,95,72,30.02,29.64,16,3,16,0.00
2013-3-9,60,43,31,58,43,31,100,100,71,29.79,29.39,41,12,41,0.02
2013-3-10,32,25,20,32,21,15,100,86,67,30.10,29.80,50,18,50,0.00
2013-3-11,51,34,17,31,22,15,100,69,29,30.09,29.84,30,4,30,0.00
2013-3-12,41,35,27,31,15,2,80,47,21,30.33,29.99,33,8,33,0.00
2013-3-13,61,40,21,34,21,12,86,49,26,30.32,30.05,26,6,26,0.00
2013-3-14,72,55,39,35,31,25,78,46,18,30.09,29.88,19,3,19,0.00
2013-3-15,77,58,42,40,32,18,72,42,11,29.91,29.56,26,6,26,0.00
2013-3-16,46,36,31,39,28,20,100,76,51,30.06,29.73,20,7,20,0.00
2013-3-17,36,30,26,36,30,24,100,98,76,30.02,29.63,25,4,25,0.02
2013-3-18,44,36,24,36,21,6,100,62,25,30.02,29.73,28,7,28,0.01
2013-3-19,49,37,30,36,20,8,100,52,24,30.31,29.98,31,7,31,0.00
2013-3-20,44,32,16,19,12,-2,76,46,22,30.39,29.91,19,5,19,0.00
2013-3-21,45,35,26,30,18,12,100,53,29,29.96,29.67,24,5,24,0.00
2013-3-22,40,33,28,35,31,28,100,94,71,29.95,29.80,12,4,12,0.03
2013-3-23,32,29,25,32,28,19,100,97,77,30.17,29.93,27,10,27,0.00
2013-3-24,32,24,17,21,14,4,91,68,33,30.26,30.11,31,12,31,0.00
2013-3-25,30,22,15,17,13,7,94,70,45,30.40,30.26,26,7,26,0.00
2013-3-26,45,29,14,25,17,8,100,65,24,30.40,30.09,25,6,25,0.00
2013-3-27,54,40,29,34,27,23,100,64,33,30.14,30.01,14,2,14,0.00
2013-3-28,63,47,30,35,28,20,100,54,22,30.14,29.98,21,4,21,0.00
2013-3-29,68,53,37,52,38,26,100,58,34,30.09,29.83,25,6,25,0.10
2013-3-30,63,51,41,53,44,33,100,80,35,29.99,29.78,21,6,21,0.03
2013-3-31,66,50,38,44,33,21,100,60,23,30.02,29.75,25,6,36,0.00
2013-4-1,46,36,29,35,26,20,100,70,37,30.26,30.02,26,5,26,0.00
2013-4-2,54,40,27,27,23,19,86,54,26,30.21,30.11,22,6,22,0.00
2013-4-3,54,41,30,30,24,20,80,55,27,30.22,30.10,28,8,29,0.00
2013-4-4,61,44,28,41,34,28,100,71,33,30.13,30.00,16,3,16,0.00
2013-4-5,76,56,38,42,34,26,96,51,18,30.01,29.47,36,9,36,0.00
2013-4-6,70,59,50,43,35,22,69,44,18,29.71,29.42,38,8,38,0.00
2013-4-7,60,53,46,55,41,27,100,66,34,29.71,29.50,18,2,18,0.07
2013-4-8,70,54,40,61,51,40,100,91,51,29.57,29.41,40,5,43,0.16
2013-4-9,49,28,21,40,28,21,100,100,100,30.15,29.41,43,19,43,1.04
2013-4-10,28,25,22,27,25,22,100,100,99,30.15,29.96,34,17,34,0.00
2013-4-11,33,28,22,29,26,22,100,93,76,29.98,29.76,25,6,25,0.00
2013-4-12,45,36,26,41,32,26,100,88,57,29.98,29.84,25,5,25,0.00
2013-4-13,64,47,29,53,40,29,100,80,46,29.98,29.32,39,8,39,0.00
2013-4-14,55,48,37,52,33,14,100,64,22,29.68,29.14,28,7,28,0.00
2013-4-15,43,36,31,30,24,16,83,62,46,30.03,29.66,24,7,24,0.00
2013-4-16,42,37,31,34,30,25,100,77,55,30.15,30.01,22,7,22,0.00
2013-4-17,41,34,30,36,33,29,100,96,72,30.07,29.84,39,14,42,0.00
2013-4-18,32,29,26,30,24,19,100,84,60,30.08,29.87,40,14,40,0.00
2013-4-19,47,36,22,34,26,18,92,69,49,30.06,29.97,26,6,26,0.00
2013-4-20,54,42,31,38,30,24,83,64,41,30.06,29.92,17,3,17,0.00
2013-4-21,66,49,35,47,39,33,100,74,32,29.99,29.87,27,5,27,0.00
2013-4-22,47,38,31,46,38,31,100,100,95,30.30,29.84,32,11,32,0.38
2013-4-23,38,32,26,32,22,11,100,72,36,30.30,30.17,28,11,28,0.00
2013-4-24,57,40,24,34,22,5,96,58,13,30.23,30.05,27,5,27,0.00
2013-4-25,71,50,31,38,29,18,100,55,15,30.17,29.81,40,12,40,0.00
2013-4-26,69,57,46,53,31,21,100,39,16,30.04,29.82,27,8,27,0.00
2013-4-27,76,59,41,55,44,34,100,66,22,30.04,29.77,21,5,21,0.00
2013-4-28,86,65,47,51,38,19,100,49,9,29.78,29.52,22,8,25,0.00
2013-4-29,81,66,53,51,42,34,73,46,20,29.66,29.32,24,6,24,0.00
2013-4-30,67,58,49,54,42,23,86,58,27,29.82,29.30,27,11,32,0.00
2013-5-1,52,39,36,45,38,33,100,97,66,30.48,29.80,35,15,35,0.29
2013-5-2,50,42,36,35,28,16,92,61,26,30.62,30.39,30,8,30,0.01
2013-5-3,54,44,31,35,27,18,100,55,26,30.40,30.03,24,5,24,0.00
2013-5-4,50,43,32,35,26,16,78,52,28,30.13,30.03,32,12,32,0.00
2013-5-5,60,48,34,42,29,17,87,52,20,30.16,30.02,19,6,19,0.00
2013-5-6,69,56,40,50,39,27,100,61,23,30.06,29.89,19,3,19,0.00
2013-5-7,64,57,52,60,52,34,100,84,46,29.91,29.76,26,4,26,0.10
2013-5-8,70,60,52,60,54,44,100,82,41,29.82,29.75,16,3,16,0.07
2013-5-9,60,56,52,57,55,50,100,98,81,29.98,29.78,24,8,24,0.00
2013-5-10,70,59,46,54,47,34,100,69,29,30.03,29.91,16,2,20,0.00
2013-5-11,62,56,49,48,33,20,71,44,21,30.25,29.98,25,8,25,0.00
2013-5-12,72,57,42,48,36,25,74,46,27,30.15,29.90,15,3,15,0.01
2013-5-13,90,71,50,53,45,36,100,50,15,29.93,29.68,25,6,25,0.00
2013-5-14,97,79,62,57,44,34,59,33,11,29.70,29.48,25,6,25,0.00
2013-5-15,78,69,61,55,46,38,58,43,27,29.73,29.57,25,8,25,0.00
2013-5-16,80,65,58,64,57,45,100,77,38,29.69,29.59,46,4,46,0.04
2013-5-17,85,70,54,65,58,51,100,72,32,29.72,29.58,21,4,21,0.00
2013-5-18,79,70,59,71,64,39,100,85,34,29.63,29.39,42,4,42,0.28
2013-5-19,62,60,59,60,58,54,100,93,79,29.55,29.48,17,4,17,0.00
2013-5-20,65,58,54,57,51,44,100,78,48,29.63,29.49,24,6,24,0.09
2013-5-21,60,55,49,50,48,40,98,78,51,29.75,29.63,28,5,28,0.00
2013-5-22,66,55,47,52,48,44,100,79,52,29.95,29.73,22,7,22,0.00
2013-5-23,67,56,48,53,50,45,100,82,48,30.09,29.94,20,5,20,0.00
2013-5-24,77,63,55,68,59,52,100,87,60,30.07,29.77,26,7,26,0.00
2013-5-25,88,72,59,66,60,35,100,72,19,29.87,29.59,53,6,53,0.41
2013-5-26,89,75,64,70,66,58,100,75,37,29.65,29.47,26,6,26,0.00
2013-5-27,74,68,61,72,65,58,100,92,76,29.60,29.43,21,4,21,0.00
2013-5-28,75,67,58,69,60,50,100,82,44,29.59,29.40,18,4,18,0.00
2013-5-29,84,67,57,70,63,53,100,89,47,29.47,29.17,29,6,29,1.20
2013-5-30,76,64,55,58,51,39,100,68,28,29.52,29.34,30,7,30,0.01
2013-5-31,74,62,50,49,43,32,87,53,23,29.69,29.52,29,6,29,0.00
2013-6-1,63,57,52,50,47,42,91,70,50,30.02,29.65,36,10,36,0.00
2013-6-2,72,58,43,50,46,40,100,66,38,30.08,29.81,12,2,12,0.00
2013-6-3,80,66,52,61,53,44,87,66,43,29.84,29.50,27,6,27,0.00
2013-6-4,70,66,62,65,58,51,100,75,53,29.91,29.57,19,5,19,0.00
2013-6-5,66,59,51,55,49,45,97,72,47,30.01,29.86,24,8,24,0.07
2013-6-6,70,60,46,52,49,46,100,69,43,29.98,29.85,13,3,13,0.00
2013-6-7,78,66,50,56,50,44,100,61,31,29.93,29.65,20,2,20,0.00
2013-6-8,72,64,58,64,58,50,100,83,54,29.72,29.48,43,4,43,0.03
2013-6-9,78,68,53,55,50,40,100,58,27,29.77,29.70,28,4,28,0.00
2013-6-10,92,75,57,71,57,47,80,56,31,29.73,29.51,18,3,19,0.00
2013-6-11,99,85,73,71,59,45,74,44,23,29.68,29.31,19,3,19,0.08
2013-6-12,82,73,61,70,64,54,100,73,41,29.94,29.40,29,10,29,0.00
2013-6-13,82,68,56,62,56,48,100,69,39,30.00,29.77,24,3,24,0.00
2013-6-14,94,77,64,71,65,57,100,69,34,29.86,29.55,42,7,42,0.05
2013-6-15,81,74,65,69,65,53,100,74,43,29.79,29.60,15,4,19,0.00
2013-6-16,84,72,64,72,65,59,100,82,52,29.92,29.73,24,2,24,0.00
2013-6-17,80,70,59,64,61,57,100,75,46,29.95,29.77,10,1,10,0.00
2013-6-18,79,71,60,66,62,55,100,75,50,29.96,29.76,15,2,15,1.74
2013-6-19,83,73,62,67,63,58,100,75,44,29.81,29.61,20,5,20,0.00
2013-6-20,90,79,67,73,67,62,100,71,41,29.66,29.49,26,7,26,0.00
2013-6-21,94,83,68,68,61,53,81,49,25,29.66,29.43,32,11,32,0.00
2013-6-22,90,76,67,72,64,59,89,69,44,29.66,29.42,25,5,25,0.00
2013-6-23,78,69,60,72,66,56,100,90,54,29.74,29.49,28,2,28,0.37
2013-6-24,86,75,63,75,68,58,100,81,48,29.74,29.43,45,3,45,0.12
2013-6-25,89,78,70,72,65,49,100,68,26,29.60,29.44,26,4,26,0.00
2013-6-26,74,73,73,63,63,63,70,70,70,29.60,29.60,0,0,2,0.00
2013-6-27,73,73,73,63,63,63,70,70,70,29.60,29.60,0,0,2,0.00
2013-6-28,73,73,73,63,63,63,70,70,70,29.60,29.60,0,0,2,0.00
2013-6-29,79,74,70,63,59,44,70,60,30,29.88,29.60,19,2,19,0.00
2013-6-30,76,69,59,61,56,50,90,65,41,30.01,29.88,13,4,13,0.00
2013-7-1,75,67,58,58,52,42,91,59,32,30.11,30.00,10,1,10,0.00
2013-7-2,78,69,58,58,49,39,83,52,27,30.07,29.93,6,0,6,0.00
2013-7-3,84,71,61,56,50,41,72,51,23,29.96,29.72,13,3,16,0.00
2013-7-4,90,76,62,54,49,41,69,42,20,29.77,29.62,18,5,18,0.00
2013-7-5,90,78,66,62,55,46,66,47,28,29.65,29.55,15,4,15,0.00
2013-7-6,95,81,68,72,62,55,79,56,27,29.57,29.49,20,3,20,0.00
2013-7-7,87,79,68,74,68,61,100,70,49,29.73,29.54,12,1,12,0.00
2013-7-8,90,79,71,75,71,64,100,79,46,29.79,29.64,14,2,14,0.04
2013-7-9,90,79,71,76,70,65,97,75,48,29.87,29.67,18,3,18,0.01
2013-7-10,81,75,70,74,67,60,100,78,55,29.98,29.81,14,3,14,0.00
2013-7-11,90,77,67,72,68,65,100,76,46,29.89,29.69,19,3,19,0.00
2013-7-12,100,84,71,72,66,56,100,59,24,29.73,29.56,18,6,18,0.00
2013-7-13,102,87,76,74,65,54,76,50,22,29.66,29.55,17,5,17,0.00
2013-7-14,83,76,71,74,71,66,100,84,66,29.95,29.60,14,2,14,0.00
2013-7-15,84,74,63,71,62,52,100,71,34,30.01,29.93,12,1,12,0.00
2013-7-16,82,72,64,68,64,58,100,78,45,30.10,29.97,21,6,21,0.00
2013-7-17,87,76,64,67,63,59,100,69,41,30.12,29.95,19,6,19,0.00
2013-7-18,92,80,69,70,64,56,100,61,31,29.97,29.70,21,10,27,0.00
2013-7-19,84,77,70,70,65,59,90,67,48,29.81,29.72,17,3,17,0.00
2013-7-20,84,74,66,73,68,59,100,83,55,29.86,29.67,31,1,31,0.00
2013-7-21,90,74,59,71,61,51,100,72,27,29.86,29.59,31,3,31,0.09
2013-7-22,90,78,64,75,65,50,100,66,37,29.72,29.53,18,3,18,0.20
2013-7-23,84,74,64,70,64,57,99,74,41,29.84,29.65,28,4,28,0.00
2013-7-24,86,74,62,69,65,57,100,78,38,29.96,29.82,12,2,12,0.00
2013-7-25,77,72,65,72,66,53,100,82,50,29.91,29.81,17,3,17,0.09
2013-7-26,75,69,65,69,60,53,100,76,47,30.06,29.89,18,4,18,0.00
2013-7-27,64,60,56,59,56,52,100,88,66,30.04,29.93,10,1,10,0.29
2013-7-28,62,59,57,60,58,53,100,95,80,29.95,29.87,8,0,10,0.00
2013-7-29,69,65,60,69,65,60,100,100,100,29.90,29.80,10,1,10,0.22
2013-7-30,79,70,65,72,68,65,100,93,71,30.03,29.86,17,1,17,0.00
2013-7-31,80,72,63,70,67,63,100,85,60,30.04,29.91,36,2,36,0.13
2013-8-1,88,77,64,72,68,64,100,77,48,29.97,29.59,26,5,26,0.79
2013-8-2,80,71,63,73,67,63,100,89,64,29.83,29.65,15,3,17,0.17
2013-8-3,73,68,64,70,67,64,100,95,77,30.05,29.82,17,3,17,0.00
2013-8-4,77,69,63,74,68,63,100,97,81,30.00,29.81,10,1,10,0.00
2013-8-5,81,75,69,81,75,69,100,100,95,29.85,29.67,14,3,14,0.01
2013-8-6,86,77,71,82,75,71,100,96,70,29.72,29.62,14,2,14,0.00
2013-8-7,80,74,69,76,69,57,100,85,49,29.84,29.70,14,2,14,0.00
2013-8-8,76,70,65,73,69,59,100,96,57,29.91,29.79,7,0,7,0.00
2013-8-9,80,70,60,74,65,58,100,86,49,29.99,29.90,6,1,6,0.00
2013-8-10,83,72,60,69,62,55,100,73,40,30.02,29.87,18,4,18,0.00
2013-8-11,85,74,63,76,67,62,100,83,50,29.92,29.80,17,5,18,0.00
2013-8-12,79,71,62,73,67,62,100,89,60,29.93,29.86,12,1,12,0.00
2013-8-13,76,69,62,72,66,59,100,93,59,30.03,29.90,24,2,24,0.06
2013-8-14,75,68,63,70,66,63,100,93,71,30.01,29.86,22,5,22,0.00
2013-8-15,79,70,62,74,65,56,100,88,47,29.92,29.81,22,4,22,0.06
2013-8-16,73,68,64,71,67,64,100,98,84,30.00,29.89,8,1,8,0.00
2013-8-17,75,69,64,71,67,64,100,94,79,30.00,29.88,14,3,14,0.00
2013-8-18,78,70,62,70,66,62,100,90,66,29.93,29.83,18,5,18,0.00
2013-8-19,89,76,64,71,67,62,100,78,41,29.88,29.73,16,6,16,0.00
2013-8-20,94,79,65,70,65,54,100,68,28,29.76,29.68,19,8,19,0.00
2013-8-21,96,81,67,70,62,52,100,58,25,29.76,29.67,17,6,17,0.00
2013-8-22,80,75,68,75,69,59,100,84,48,29.86,29.71,16,3,16,0.00
2013-8-23,87,77,68,74,68,58,100,78,42,29.86,29.68,16,2,16,0.00
2013-8-24,96,83,70,72,62,51,93,55,22,29.79,29.69,31,9,31,0.00
2013-8-25,97,84,73,69,60,48,87,50,19,29.84,29.76,29,10,29,0.00
2013-8-26,100,86,75,64,58,47,67,43,17,29.83,29.70,28,11,28,0.00
2013-8-27,99,83,71,62,57,46,73,46,18,29.76,29.67,18,7,18,0.00
2013-8-28,94,80,69,67,59,47,72,51,21,29.81,29.72,14,4,14,0.00
2013-8-29,100,82,69,74,64,46,100,60,17,29.80,29.68,17,2,17,0.00
2013-8-30,92,80,69,76,67,55,100,67,38,29.83,29.69,25,3,25,0.02
2013-8-31,94,79,68,74,67,57,100,72,31,29.82,29.62,25,3,25,0.14
2013-9-1,81,74,67,75,57,41,100,59,28,29.91,29.69,17,4,17,0.00
2013-9-2,86,71,58,63,58,48,100,67,29,29.95,29.84,12,1,12,0.00
2013-9-3,92,76,63,62,56,46,91,56,23,29.90,29.76,24,6,24,0.00
2013-9-4,95,78,67,61,56,50,77,50,23,29.96,29.80,22,6,22,0.00
2013-9-5,94,79,67,59,55,49,67,46,23,29.94,29.83,18,4,18,0.00
2013-9-6,102,83,67,63,51,38,85,42,11,29.85,29.66,21,7,21,0.00
2013-9-7,95,81,67,77,57,42,100,47,25,29.75,29.67,11,2,12,0.00
2013-9-8,95,80,69,81,60,29,100,63,10,29.72,29.57,14,2,14,0.00
2013-9-9,97,84,70,54,44,18,46,27,8,29.63,29.53,26,9,26,0.00
2013-9-10,84,76,67,84,45,-29,100,54,1,29.92,29.61,20,4,20,0.00
2013-9-11,76,70,66,74,69,60,100,98,60,30.01,29.88,13,2,13,0.00
2013-9-12,77,70,66,77,53,-37,100,76,1,30.09,30.00,14,2,14,0.01
2013-9-13,67,63,59,67,26,-41,100,39,1,30.08,29.91,14,2,14,0.00
2013-9-14,76,66,58,69,20,-39,100,23,2,29.91,29.69,21,6,21,0.00
2013-9-15,70,63,59,69,60,32,100,90,31,30.12,29.69,22,7,22,0.14
2013-9-16,59,57,56,59,57,56,100,100,100,30.17,30.04,12,2,12,0.00
2013-9-17,83,67,56,74,60,30,100,85,16,30.04,29.62,20,5,20,0.02
2013-9-18,92,77,66,90,62,-30,100,75,2,29.62,29.41,21,6,21,0.00
2013-9-19,77,63,52,76,44,-38,100,63,3,30.00,29.49,29,6,29,0.06
2013-9-20,72,60,48,55,48,42,100,70,37,30.07,29.88,13,3,13,0.00
2013-9-21,83,67,51,54,49,37,100,58,24,29.89,29.61,26,7,26,0.00
2013-9-22,83,69,56,54,49,44,74,51,28,29.63,29.47,29,8,29,0.00
2013-9-23,70,61,57,61,52,47,100,74,45,29.61,29.35,26,6,26,0.31
2013-9-24,72,62,53,60,38,-35,100,61,1,29.87,29.61,27,6,27,0.00
2013-9-25,79,66,53,62,26,-36,100,47,1,29.80,29.43,19,5,20,0.00
2013-9-26,90,74,61,90,11,-34,100,12,1,29.49,29.36,17,7,22,0.00
2013-9-27,76,68,51,61,22,-34,100,31,1,29.63,29.41,38,7,38,1.21
2013-9-28,66,55,45,59,45,-47,100,78,1,29.98,29.66,14,2,24,0.04
2013-9-29,77,61,47,56,20,-49,100,36,1,29.97,29.70,26,7,26,0.00
2013-9-30,83,65,51,80,24,-45,100,38,1,29.70,29.55,19,6,19,0.00
2013-10-1,72,64,54,72,43,-42,100,68,1,29.86,29.58,19,4,19,0.00
2013-10-2,79,67,60,79,47,-40,100,65,1,29.79,29.60,17,3,17,0.00
2013-10-3,69,61,55,66,59,-40,100,95,4,29.65,29.53,19,4,19,0.00
2013-10-4,70,56,39,69,52,29,100,88,61,29.88,29.44,22,5,22,0.00
2013-10-5,44,40,34,41,32,27,100,77,53,29.98,29.87,26,6,26,0.01
2013-10-6,63,50,40,41,29,18,100,49,20,30.04,29.93,30,7,30,0.00
2013-10-7,78,58,38,43,14,-41,100,31,1,30.04,29.79,19,5,19,0.00
2013-10-8,80,64,49,35,6,-42,59,11,1,29.79,29.59,29,9,29,0.00
2013-10-9,78,65,52,36,2,-41,55,9,1,29.73,29.60,21,6,21,0.00
2013-10-10,80,65,53,61,25,-39,100,37,1,29.73,29.43,31,6,31,0.27
2013-10-11,61,56,48,58,47,38,100,74,49,29.88,29.35,31,8,31,0.05
2013-10-12,60,51,42,40,35,24,84,56,27,30.16,29.88,12,1,12,0.00
2013-10-13,65,56,44,40,33,26,70,45,24,30.25,29.99,24,4,24,0.00
2013-10-14,67,55,44,62,50,38,100,86,50,29.99,29.47,38,6,38,0.91
2013-10-15,47,43,39,39,34,31,86,72,58,30.15,29.85,30,8,30,0.00
2013-10-16,55,43,30,37,32,25,100,70,31,30.14,29.91,17,1,17,0.00
2013-10-17,48,42,36,39,33,27,97,72,53,30.09,29.86,28,6,28,0.00
2013-10-18,49,39,33,42,31,21,100,75,35,30.12,30.00,17,2,17,0.02
2013-10-19,64,47,32,36,30,24,100,58,24,30.03,29.73,15,3,15,0.00
2013-10-20,58,49,41,39,33,27,67,53,34,30.00,29.66,25,6,25,0.00
2013-10-21,60,46,32,40,32,19,100,65,22,30.05,29.89,15,2,15,0.00
2013-10-22,57,51,42,44,37,29,100,62,35,30.02,29.87,31,5,31,0.00
2013-10-23,62,47,37,45,38,31,100,76,33,30.14,29.93,28,6,28,0.00
2013-10-24,45,42,38,44,38,33,100,87,67,30.36,30.12,11,2,11,0.00
2013-10-25,58,45,35,40,35,28,100,70,43,30.32,29.99,28,8,28,0.00
2013-10-26,57,48,42,44,34,18,99,61,22,30.23,29.99,15,4,19,0.00
2013-10-27,73,59,40,39,33,24,70,40,18,30.06,29.66,14,4,14,0.00
2013-10-28,51,42,36,42,39,35,100,87,57,30.06,29.76,22,8,22,0.00
2013-10-29,45,43,40,45,43,40,100,100,100,30.02,29.88,16,6,16,0.08
2013-10-30,54,44,38,54,44,36,100,100,98,29.95,29.69,12,2,12,0.01
2013-10-31,59,45,33,43,33,21,100,69,25,29.72,29.52,19,2,19,0.00
2013-11-1,56,46,38,45,31,14,100,63,20,30.07,29.63,31,5,31,0.00
2013-11-2,58,44,30,30,22,7,99,48,15,30.20,29.78,20,5,20,0.00
2013-11-3,68,50,39,38,29,22,72,47,18,29.83,29.40,26,8,26,0.00
2013-11-4,49,44,40,44,34,19,100,71,32,30.05,29.53,24,6,24,0.00
2013-11-5,40,37,34,38,37,31,100,98,68,30.12,29.88,24,6,24,0.40
2013-11-6,47,36,30,36,28,14,100,77,27,30.29,30.11,14,3,14,0.00
2013-11-7,52,41,32,39,32,17,100,75,25,30.43,30.07,16,3,16,0.00
2013-11-8,68,48,36,42,33,14,100,65,13,30.08,29.61,25,5,25,0.00
2013-11-9,58,48,41,37,25,11,72,44,16,30.26,29.86,11,2,11,0.00
2013-11-10,55,43,31,52,41,30,100,92,70,30.29,30.06,26,5,26,0.00
2013-11-11,45,33,23,45,26,4,100,80,43,30.79,30.00,21,7,21,0.00
2013-11-12,39,27,13,28,14,6,93,60,39,30.86,30.46,20,7,20,0.00
2013-11-13,64,42,27,36,28,19,100,66,18,30.46,29.83,24,8,24,0.00
2013-11-14,55,46,39,47,35,19,100,71,25,29.92,29.76,19,4,19,0.00
2013-11-15,57,46,37,43,34,22,100,71,26,29.80,29.35,22,5,22,0.00
2013-11-16,62,48,35,43,22,-3,100,50,7,29.36,29.20,21,3,21,0.00
2013-11-17,50,43,30,45,18,-6,100,42,10,30.07,29.30,32,6,32,0.04
2013-11-18,59,42,31,9,-3,-30,39,18,2,30.20,30.00,28,6,28,0.00
2013-11-19,58,44,32,29,15,4,55,33,15,30.01,29.65,28,10,28,0.00
2013-11-20,60,47,36,41,25,1,100,51,9,29.94,29.61,19,5,19,0.00
2013-11-21,35,21,15,33,20,9,100,95,76,30.73,29.94,26,12,35,0.00
2013-11-22,33,21,12,16,9,-6,90,63,20,30.77,30.64,17,3,17,0.00
2013-11-23,25,19,15,18,14,7,100,83,66,30.87,30.67,12,4,12,0.00
2013-11-25,42,36,29,16,14,11,55,41,29,30.26,30.16,19,3,19,0.00
2013-11-26,32,27,16,20,11,0,73,52,27,30.46,30.25,28,7,28,0.00
2013-11-27,55,32,13,26,12,-1,65,46,19,30.46,29.95,25,7,25,0.00
2013-11-28,38,28,20,27,23,18,100,83,49,30.42,30.06,16,4,16,0.00
2013-11-29,44,29,19,31,23,18,100,80,43,30.41,30.08,19,4,19,0.00
2013-11-30,58,41,29,32,24,14,100,56,18,30.12,29.98,10,1,10,0.00
2013-12-1,53,38,27,33,26,18,100,66,27,30.10,29.74,12,2,12,0.00
2013-12-2,64,48,37,25,21,16,56,37,16,29.74,29.42,19,3,19,0.00
2013-12-3,49,34,22,34,25,4,100,74,29,29.77,29.37,30,7,30,0.00
2013-12-4,22,14,8,18,0,-59,100,33,2,30.26,29.74,30,12,37,0.00
2013-12-5,14,7,1,14,5,0,100,58,100,30.51,30.25,21,5,21,0.00
2013-12-6,11,4,-1,11,4,0,100,46,100,30.75,30.50,12,4,12,0.00
2013-12-7,10,4,-3,10,-7,-80,100,40,1,30.75,30.30,10,2,10,0.00
2013-12-8,13,9,1,12,3,-9,97,79,43,30.31,30.03,11,1,11,0.00
2013-12-9,19,7,-5,6,-3,-13,73,63,40,30.42,30.17,17,4,17,0.00
2013-12-10,36,25,12,20,12,3,73,58,32,30.32,30.03,18,4,18,0.00
2013-12-11,24,18,8,14,8,0,81,66,56,30.64,30.32,19,6,19,0.00
2013-12-12,47,29,15,21,14,7,76,55,22,30.45,29.96,12,3,12,0.00
2013-12-13,38,27,18,24,18,11,95,69,48,30.12,29.79,14,3,14,0.00
2013-12-14,45,30,16,27,18,11,100,66,35,30.26,30.08,21,4,21,0.00
2013-12-15,56,42,32,21,18,15,59,41,20,30.08,29.87,17,3,17,0.00
2013-12-16,59,42,32,26,20,15,77,43,19,30.15,29.90,11,2,14,0.00
2013-12-17,47,36,27,29,22,17,97,58,30,30.33,29.98,17,5,17,0.00
2013-12-18,70,47,32,23,16,10,56,34,10,29.99,29.58,14,5,14,0.00
2013-12-19,37,26,10,28,20,5,100,78,61,30.01,29.60,26,9,26,0.00
2013-12-20,21,14,10,9,5,1,80,68,56,30.08,29.87,26,5,26,0.00
2013-12-21,31,20,10,14,10,4,80,65,45,29.95,29.72,12,3,12,0.00
2013-12-22,29,19,11,15,11,6,95,74,42,30.40,29.95,19,5,19,0.00
2013-12-23,14,10,6,13,2,-2,94,70,54,30.62,30.38,13,4,13,0.00
2013-12-24,39,24,10,34,22,5,100,90,70,30.39,30.05,27,8,27,0.00
2013-12-25,42,31,22,28,21,15,100,69,36,30.37,30.21,19,3,19,0.00
2013-12-26,54,35,21,21,17,12,75,50,24,30.24,30.11,20,4,20,0.00
2013-12-27,60,41,28,24,20,18,71,46,20,30.21,29.97,18,4,18,0.00
2013-12-28,59,36,13,27,19,1,74,53,22,30.20,29.67,40,8,40,0.00
2013-12-29,21,12,5,3,-2,-5,70,54,33,30.51,30.18,36,7,37,0.00
2013-12-30,48,29,14,26,15,0,80,57,29,30.26,30.03,21,4,21,0.00